This demonstration page uses our WeatherBlox Daily Observations layout. Learn more.

Left ArrowRight Arrow

Hourly Observations for November 20, 2020

Temp ( °F °C ) Dew Point ( °F °C ) Humidity (%) Winds ( mph kmh ) Pressure ( in mb ) Visibility ( mi km ) Precip ( " mm )
12:15 am 00:15 Clear 46 7.6 32 undefined 59 59 N 8 13 30.22 1024 10 16 N/A
12:35 am 00:35 Clear 45 7.1 32 undefined 61 61 N 9 15 30.23 1024 10 16 N/A
12:55 am 00:55 Clear 45 7 32 0.1 62 62 NNW 8 13 30.23 1024 10 16 N/A
1:15 am 01:15 Clear 45 7 32 0.2 62 62 NNW 8 13 30.24 1024 10 16 N/A
1:35 am 01:35 Clear 44 6.7 32 undefined 63 63 N 8 13 30.24 1024 10 16 N/A
1:55 am 01:55 Clear 42 5.3 31 -0.5 67 67 NNW 7 11 30.27 1025 10 16 N/A
2:15 am 02:15 Clear 41 4.9 31 -0.7 67 67 NNW 7 11 30.27 1025 10 16 N/A
2:35 am 02:35 Clear 39 4.1 30 -0.9 70 70 NNW 8 13 30.29 1026 10 16 N/A
2:55 am 02:55 Clear 39 4 30 -0.9 71 71 N 9 15 30.30 1026 10 16 N/A
3:15 am 03:15 Clear 40 4.5 31 -0.5 70 70 N 9 15 30.30 1026 10 16 N/A
3:35 am 03:35 Clear 37 2.7 29 -1.7 73 73 N 6 9 30.33 1027 10 16 N/A
3:55 am 03:55 Clear 36 2 29 -1.8 76 76 NNW 6 9 30.35 1028 10 16 N/A
4:15 am 04:15 Clear 37 2.7 30 -1 77 77 NNW 8 13 30.34 1027 10 16 N/A
4:35 am 04:35 Clear 37 2.9 31 -0.8 77 77 NNW 8 13 30.35 1028 10 16 N/A
4:55 am 04:55 Clear 38 3.1 31 -0.3 79 79 N 7 11 30.36 1028 10 16 N/A
5:15 am 05:15 Clear 36 2.2 31 -0.8 81 81 NNW 8 13 30.37 1029 10 16 N/A
5:35 am 05:35 Clear 35 1.6 30 -1.1 82 82 NNW 7 11 30.39 1029 10 16 N/A
5:55 am 05:55 Clear 33 0.7 29 -1.9 83 83 NW 6 9 30.41 1030 10 16 N/A
6:15 am 06:15 Clear 32 0.1 29 -1.9 87 87 NW 6 9 30.42 1030 10 16 N/A
6:35 am 06:35 Clear 32 -0.1 28 -2.1 87 87 NW 5 7 30.44 1031 10 16 N/A
6:55 am 06:55 Clear 32 0.2 29 -1.6 88 88 NW 6 9 30.43 1031 10 16 N/A
7:15 am 07:15 Clear 33 0.7 30 -1.3 87 87 NW 7 11 30.45 1031 10 16 N/A
7:35 am 07:35 Sunny 35 1.8 31 -0.6 84 84 NW 7 11 30.45 1031 10 16 N/A
7:55 am 07:55 Sunny 34 1.1 30 -1.3 84 84 NW 5 7 30.46 1031 10 16 N/A
8:15 am 08:15 Sunny 35 1.8 31 -0.8 83 83 NW 7 11 30.47 1032 10 16 N/A
8:35 am 08:35 Sunny 39 3.8 33 0.3 78 78 NW 5 7 30.46 1031 10 16 N/A
8:55 am 08:55 Sunny 44 6.5 34 1.3 70 70 NNW 5 7 30.45 1031 10 16 N/A
9:15 am 09:15 Partly Cloudy 44 6.5 34 1.1 69 69 N 5 7 30.44 1031 10 16 N/A
9:35 am 09:35 Mostly Cloudy 44 6.6 34 1 68 68 N 6 9 30.45 1031 10 16 N/A
9:55 am 09:55 Mostly Cloudy 45 7.3 35 1.5 67 67 N 6 9 30.46 1031 10 16 N/A
10:15 am 10:15 Partly Cloudy 45 7.3 34 1.1 65 65 N 6 9 30.46 1031 10 16 N/A
10:35 am 10:35 Sunny 47 8.1 35 1.5 63 63 N 8 13 30.45 1031 10 16 N/A
10:55 am 10:55 Sunny 48 8.8 33 0.7 57 57 NE 7 11 30.44 1031 10 16 N/A
11:15 am 11:15 Sunny 49 9.4 33 0.6 55 55 NNE 9 15 30.44 1031 10 16 N/A
11:35 am 11:35 Sunny 49 9.7 33 0.4 53 53 NE 9 15 30.44 1031 10 16 N/A
11:55 am 11:55 Sunny 51 10.3 32 0.1 50 50 N N/A 30.43 1030 10 16 N/A
12:15 pm 12:15 Sunny 52 10.9 32 0.1 48 48 NE 3 6 30.41 1030 10 16 N/A
12:35 pm 12:35 Sunny 53 11.8 31 -0.5 43 43 NE 7 11 30.41 1030 10 16 N/A
12:55 pm 12:55 Sunny 54 12 30 -1.1 41 41 E 8 13 30.39 1029 10 16 N/A
1:15 pm 13:15 Sunny 54 12.2 30 -1.1 40 40 NE 7 11 30.38 1029 10 16 N/A
1:35 pm 13:35 Sunny 55 12.6 30 -0.9 40 40 NE 8 13 30.38 1029 10 16 N/A
1:55 pm 13:55 Sunny 55 12.7 29 -1.7 37 37 NNE 6 9 30.38 1029 10 16 N/A
2:15 pm 14:15 Sunny 55 12.8 28 -2.5 35 35 ENE 6 9 30.37 1028 10 16 N/A
2:35 pm 14:35 Sunny 56 13.1 28 -2 35 35 NNE 7 11 30.37 1028 10 16 N/A
2:55 pm 14:55 Sunny 56 13.2 27 -2.6 34 34 ENE 6 9 30.37 1029 10 16 N/A
3:15 pm 15:15 Sunny 56 13.1 27 -3 33 33 ENE 7 11 30.38 1029 10 16 N/A
3:35 pm 15:35 Sunny 55 12.9 26 -3.2 33 33 ENE 3 6 30.38 1029 10 16 N/A
3:55 pm 15:55 Sunny 55 12.8 26 -3.4 32 32 ENE 6 9 30.38 1029 10 16 N/A
4:15 pm 16:15 Sunny 55 12.5 27 -3 34 34 ENE 5 7 30.39 1029 10 16 N/A
4:35 pm 16:35 Sunny 52 11.1 26 -3.3 37 37 ENE 6 9 30.41 1030 10 16 N/A
4:55 pm 16:55 Sunny 49 9.4 26 -3.3 41 41 ENE 6 9 30.43 1030 10 16 N/A
5:15 pm 17:15 Sunny 46 7.6 25 -3.9 44 44 ENE 7 11 30.44 1031 10 16 N/A
5:35 pm 17:35 Clear 42 5.8 24 -4.2 49 49 ENE 7 11 30.47 1032 10 16 N/A
5:55 pm 17:55 Clear 45 7.3 26 -3.5 47 47 ENE 8 13 30.46 1031 10 16 N/A
6:15 pm 18:15 Clear 46 7.5 26 -3.6 46 46 E 7 11 30.47 1032 10 16 N/A
6:35 pm 18:35 Clear 46 7.8 26 -3.6 45 45 E 8 13 30.46 1032 10 16 N/A
6:55 pm 18:55 Clear 47 8.2 26 -3.5 44 44 E 6 9 30.46 1031 10 16 N/A
7:15 pm 19:15 Clear 43 6.1 26 -3.6 50 50 E 5 7 30.49 1032 10 16 N/A
7:35 pm 19:35 Clear 39 4.1 26 -3.5 58 58 ESE 5 7 30.51 1033 10 16 N/A
7:55 pm 19:55 Clear 40 4.2 26 -3.5 58 58 E 3 6 30.52 1033 10 16 N/A
8:15 pm 20:15 Clear 40 4.2 26 -3.5 58 58 N N/A 30.52 1033 10 16 N/A
8:35 pm 20:35 Clear 39 4.1 25 -3.7 57 57 E 3 6 30.53 1034 10 16 N/A
8:55 pm 20:55 Clear 41 5.1 26 -3.3 55 55 N N/A 30.52 1033 10 16 N/A
9:15 pm 21:15 Clear 40 4.7 26 -3.2 57 57 N N/A 30.52 1034 10 16 N/A
9:35 pm 21:35 Clear 40 4.5 26 -3.3 57 57 N N/A 30.52 1034 10 16 N/A
9:55 pm 21:55 Partly Cloudy 39 4 26 -3.3 59 59 E 3 6 30.53 1034 10 16 N/A
10:15 pm 22:15 Mostly Cloudy 41 5 26 -3.1 56 56 E 5 7 30.53 1034 10 16 N/A
10:35 pm 22:35 Partly Cloudy 41 5 27 -2.6 58 58 E 6 9 30.53 1034 10 16 N/A
10:55 pm 22:55 Clear 40 4.3 27 -2.6 61 61 E 6 9 30.53 1034 10 16 N/A
11:15 pm 23:15 Clear 39 3.9 27 -2.8 62 62 E 5 7 30.53 1034 10 16 N/A
11:35 pm 23:35 Clear 40 4.5 27 -2.8 59 59 E 3 6 30.53 1034 10 16 N/A
11:55 pm 23:55 Partly Cloudy 38 3.6 27 -3 62 62 E 3 6 30.54 1034 10 16 N/A

Powered by AerisWeather